Lampedusa current weather conditions

sailwx.info

Wind from 210 at 7 knots

Air temperature 16.0° C
Dewpoint 14.0° C

Last reported at 2015-Mar-04 08:50 UTC.
Time now 2015-Mar-04 11:19 UTC

Location: N 35°30' E 012°37'.
View on Google Maps.

See reports from other nearby stations

  
Tides and Currents Weather Stations Pressure Air Temp Water Temp Dewpoint Dewpoint Depression Visibility Wind Speed Wind Dir Waves Ship Positions
date/time (UTC)wind fromknots sea level pressurealtimeterstation pressurevisibilityair tempwater tempwave heightnotes
2015-Mar-04 09:50 210 8 16.0
2015-Mar-04 08:50 210 7 16.0
2015-Mar-04 07:50 220 7 16.0
2015-Mar-04 06:50 210 5 15.0
2015-Mar-04 05:50 230 5 14.0
2015-Mar-04 05:00 210 6 14.0
2015-Mar-03 20:50 250 6 14.0
2015-Mar-03 19:50 270 4 15.0
2015-Mar-03 18:50 290 3 14.0
2015-Mar-03 17:50 260 4 15.0
2015-Mar-03 16:50 240 5 16.0
2015-Mar-03 15:50 260 4 17.0
2015-Mar-03 14:50 310 8 18.0
2015-Mar-03 13:50 300 10 18.0
2015-Mar-03 12:50 300 10 19.0
2015-Mar-03 11:50 280 9 19.0
2015-Mar-03 10:50 300 11 19.0
2015-Mar-03 09:50 290 12 19.0
2015-Mar-03 08:50 290 10 18.0
2015-Mar-03 07:50 240 8 16.0
2015-Mar-03 06:50 270 11 15.0
2015-Mar-03 05:50 260 9 14.0
2015-Mar-03 05:00 260 9 14.0
2015-Mar-02 20:50 240 11 14.0
2015-Mar-02 19:50 240 11 14.0
2015-Mar-02 18:50 240 12 14.0
2015-Mar-02 17:50 240 10 14.0
2015-Mar-02 16:50 240 12 14.0
2015-Mar-02 15:50 250 13 14.0
2015-Mar-02 14:50 250 13 15.0
2015-Mar-02 13:50 240 12 15.0
2015-Mar-02 12:50 240 14 15.0
2015-Mar-02 11:50 250 13 5.415.0